Milton, FL

12:58 AM CDT on March 23, 2017 (GMT -0500)
Whiting Field Naval Air Station (South)

Weather History for KNDZ - September, 2012

Change the Weather History Date:

Sunday, September 2, 2012

  Actual Average (KNSE) Record (KNSE)
Temperature  
Mean Temperature 80 °F -  
Max Temperature 91 °F 86 °F 96 °F (2015)
Min Temperature 71 °F 69 °F 46 °F (1999)
Cooling Degree Days 16    
Growing Degree Days 30 (Base 50)    
Moisture  
Dew Point 73 °F    
Average Humidity 86    
Maximum Humidity 100    
Minimum Humidity 55    
Precipitation  
Precipitation 0.00 in - - ()
Sea Level Pressure  
Sea Level Pressure 30.02 in    
Wind  
Wind Speed 1 mph (SW)    
Max Wind Speed 12 mph    
Max Gust Speed 16 mph    
Visibility 6 miles    
Events Fog    
Averages and records for this station are not official NWS values.
T = Trace of Precipitation, MM = Missing Value Source: NWS Daily Summary

Daily Weather History Graph

Daily Weather History Graph

Search for Another Location

Airport or City:

Trip Planner

Search our weather history database for the weather conditions in past years. The results will help you decide how hot, cold, wet, or windy it might be!

Date:

Astronomy

Sep. 02, 2012 Rise Set
Actual Time 6:25 AM CDT 7:09 PM CDT
Civil Twilight 6:00 AM CDT 7:33 PM CDT
Nautical Twilight 5:31 AM CDT 8:02 PM CDT
Astronomical Twilight 5:02 AM CDT 8:31 PM CDT
Moon 8:11 PM CDT (9/2) 8:19 AM CDT (9/2)
Length of Visible Light 13h 32m
Length of Day
12h 43m
Waning Gibbous, 95% of the Moon is Illuminated
Sep 2
Waning Gibbous
Sep 8
Last Quarter
Sep 15
New
Sep 22
First Quarter
Sep 29
Full

Hourly Weather History & Observations

Time (CDT) Temp. Heat Index Dew Point Humidity Pressure Visibility Wind Dir Wind Speed Gust Speed Precip Events Conditions
12:56 AM 75.9 °F - 73.9 °F 94% 30.06 in 10.0 mi Calm Calm - N/A   Clear
1:56 AM 75.0 °F - 73.0 °F 94% 30.04 in 10.0 mi Calm Calm - N/A   Clear
2:46 AM 73.4 °F - 73.4 °F 100% 30.06 in 2.0 mi Calm Calm - N/A   Clear
2:56 AM 73.9 °F - 73.0 °F 97% 30.01 in 4.0 mi Calm Calm - N/A   Clear
3:56 AM 73.9 °F - 73.0 °F 97% 30.00 in 2.5 mi Calm Calm - N/A   Clear
4:01 AM 73.4 °F - 71.6 °F 94% 30.05 in 1.0 mi Calm Calm - N/A   Mist
4:09 AM 73.4 °F - 71.6 °F 94% 30.04 in 0.8 mi Calm Calm - N/A   Mist
4:13 AM 73.4 °F - 71.6 °F 94% 30.04 in 1.2 mi Calm Calm - N/A   Partly Cloudy
4:16 AM 73.4 °F - 71.6 °F 94% 30.04 in 3.0 mi Calm Calm - N/A   Scattered Clouds
4:20 AM 73.4 °F - 71.6 °F 94% 30.05 in 1.8 mi Calm Calm - N/A   Mostly Cloudy
4:29 AM 71.6 °F - 71.6 °F 100% 30.04 in 0.2 mi Calm Calm - N/A Fog Fog
4:51 AM 71.6 °F - 69.8 °F 94% 30.04 in 2.0 mi Calm Calm - N/A   Overcast
4:56 AM 71.1 °F - 70.0 °F 96% 30.00 in 3.0 mi Calm Calm - N/A   Overcast
4:58 AM 71.6 °F - 69.8 °F 94% 30.04 in 1.8 mi Calm Calm - N/A   Overcast
5:08 AM 71.6 °F - 69.8 °F 94% 30.04 in 0.8 mi Calm Calm - N/A   Mist
5:33 AM 71.6 °F - 69.8 °F 94% 30.06 in 1.8 mi Calm Calm - N/A   Mostly Cloudy
5:45 AM 71.6 °F - 69.8 °F 94% 30.06 in 0.8 mi Calm Calm - N/A   Mist
5:56 AM 72.0 °F - 70.0 °F 93% 30.01 in 0.8 mi Calm Calm - N/A   Mist
6:56 AM 73.0 °F - 72.0 °F 96% 30.04 in 0.2 mi Calm Calm - N/A Fog Fog
7:36 AM 75.2 °F - 73.4 °F 94% 30.09 in 2.0 mi Calm Calm - N/A   Overcast
7:43 AM 75.2 °F - 73.4 °F 94% 30.09 in 8.0 mi Calm Calm - N/A   Overcast
7:53 AM 75.2 °F - 73.4 °F 94% 30.10 in 10.0 mi Calm Calm - N/A   Mostly Cloudy
7:56 AM 75.9 °F - 75.0 °F 97% 30.06 in 10.0 mi Calm Calm - N/A   Scattered Clouds
8:56 AM 80.1 °F 85.4 °F 75.9 °F 87% 30.06 in 10.0 mi NW 3.5 mph - N/A   Partly Cloudy
9:56 AM 82.9 °F 90.2 °F 75.0 °F 77% 30.06 in 10.0 mi NW 4.6 mph - N/A   Mostly Cloudy
10:03 AM 84.2 °F 92.3 °F 75.2 °F 74% 30.11 in 10.0 mi West 6.9 mph - N/A   Scattered Clouds
10:56 AM 87.1 °F 95.4 °F 73.9 °F 65% 30.05 in 10.0 mi Variable 4.6 mph - N/A   Partly Cloudy
11:56 AM 87.1 °F 96.3 °F 75.0 °F 67% 30.04 in 10.0 mi Calm Calm - N/A   Partly Cloudy
12:56 PM 89.1 °F 97.0 °F 73.0 °F 59% 30.02 in 10.0 mi Variable 4.6 mph - N/A   Clear
1:56 PM 90.0 °F 96.9 °F 72.0 °F 55% 29.99 in 10.0 mi SSW 5.8 mph - N/A   Partly Cloudy
2:56 PM 90.0 °F 100.2 °F 75.0 °F 61% 29.97 in 10.0 mi Variable 6.9 mph - N/A   Scattered Clouds
3:56 PM 86.0 °F 93.0 °F 73.0 °F 65% 29.96 in 10.0 mi SSW 8.1 mph - N/A   Clear
4:56 PM 87.1 °F 94.5 °F 73.0 °F 63% 29.95 in 10.0 mi SSW 11.5 mph 16.1 mph N/A   Clear
5:56 PM 84.9 °F 93.3 °F 75.0 °F 72% 29.95 in 10.0 mi South 10.4 mph - N/A   Clear
6:56 PM 82.0 °F 87.9 °F 73.9 °F 76% 29.95 in 10.0 mi South 8.1 mph - N/A   Clear
7:56 PM 80.1 °F 84.5 °F 73.9 °F 81% 29.95 in 10.0 mi Calm Calm - N/A   Clear
8:56 PM 79.0 °F - 73.9 °F 84% 29.96 in 10.0 mi Calm Calm - N/A   Clear
9:56 PM 78.1 °F - 73.9 °F 87% 29.96 in 10.0 mi Calm Calm - N/A   Clear
10:56 PM 77.0 °F - 73.9 °F 90% 29.96 in 10.0 mi Calm Calm - N/A   Clear
11:56 PM 77.0 °F - 73.9 °F 90% 29.96 in 10.0 mi Calm Calm - N/A   Clear